Погода в Усть-Ламенке

Россия / Тюменская область     56°30′09″N   68°04′03″E
темп.,
°C
ветер,
м/с
пор.,
м/с
влажн.,
%
обл.,
%
осадки,
мм/ч
давл.,
гПа
погр.,
м
14 июня, пн
пн1423:00+17зсз22685 0.0 102321
02:00+15зсз226961 0.0 102314
05:00+15з22707 0.0 102418
08:00+21зюз245666 0.0 1024312
11:00+25зюз334117 0.0 10231502
14:00+27з453727 0.0 10221966
17:00+27зюз35395 0.0 10211674
20:00+22ююз34627 0.0 102065
15 июня, вт
вт1523:00+17юз35665 0.0 102079
02:00+17юз346377 0.0 101958
05:00+16юз3763100 0.0 1019123
08:00+21юз4856100 0.0 1018286
11:00+26юз5743100 0.0 1017776
14:00+28зюз5740100 0.0 10151461
17:00+29зюз483913 0.0 10141889
20:00+23зюз3864100 0.0 1013211
16 июня, ср
ср1623:00+21зюз1164100 0.0 101214
02:00+17сз22786 0.0 101228
05:00+16з38875 0.0 1013179
08:00+22з466941 0.0 1013453
11:00+26з575468 0.0 10121384
14:00+28зсз574390 0.0 10112547
17:00+27сз364615 0.0 10111819
20:00+22зюз22665 0.0 101126
17 июня, чт
чт1723:00+18з22784 0.0 101116
02:00+17зюз22793 0.0 101017
05:00+18юз358358 0.0 1009108
08:00+24юз36614 0.0 1008411
11:00+28юз57460 0.0 10061536
14:00+30зюз47395 0.0 10051684
17:00+18ссв3686100 2.2 100499
20:00+17ююз51390100 11.8 1003332
18 июня, пт
пт1823:00+17з3798100 14.7 1004238
02:00+13ссз61097100 4.8 1004617
05:00+9ссз61196100 8.8 1007666
08:00+9ссз7118281 0.3 1009784
11:00+13с81052100 0.3 10091239
14:00+14ссз7104684 0.0 10101579
17:00+13с71248100 0.0 10121875
20:00+11ссв595699 0.0 1012915